Year,Month,Day,Hour,Minute,Value (Times are PST for temperature in C)
2010,04,10,00,00,0.50
2010,04,10,00,01,0.60
2010,04,10,00,02,0.60
2010,04,10,00,03,0.60
2010,04,10,00,04,0.70
2010,04,10,00,05,0.70
2010,04,10,00,06,0.70
2010,04,10,00,07,0.70
2010,04,10,00,08,0.70
2010,04,10,00,09,0.70
2010,04,10,00,10,0.70
2010,04,10,00,11,0.70
2010,04,10,00,12,0.60
2010,04,10,00,13,0.70
2010,04,10,00,14,0.70
2010,04,10,00,15,0.70
2010,04,10,00,16,0.70
2010,04,10,00,17,0.70
2010,04,10,00,18,0.70
2010,04,10,00,19,0.70
2010,04,10,00,20,0.60
2010,04,10,00,21,0.60
2010,04,10,00,22,0.60
2010,04,10,00,23,0.60
2010,04,10,00,24,0.60
2010,04,10,00,25,0.60
2010,04,10,00,26,0.60
2010,04,10,00,27,0.60
2010,04,10,00,28,0.60
2010,04,10,00,29,0.60
2010,04,10,00,30,0.60
2010,04,10,00,31,0.60
2010,04,10,00,32,0.60
2010,04,10,00,33,0.60
2010,04,10,00,34,0.60
2010,04,10,00,35,0.60
2010,04,10,00,36,0.60
2010,04,10,00,37,0.60
2010,04,10,00,38,0.60
2010,04,10,00,39,0.60
2010,04,10,00,40,0.60
2010,04,10,00,41,0.50
2010,04,10,00,42,0.50
2010,04,10,00,43,0.50
2010,04,10,00,44,0.40
2010,04,10,00,45,0.40
2010,04,10,00,46,0.30
2010,04,10,00,47,0.30
2010,04,10,00,48,0.30
2010,04,10,00,49,0.30
2010,04,10,00,50,0.30
2010,04,10,00,51,0.20
2010,04,10,00,52,0.20
2010,04,10,00,53,0.20
2010,04,10,00,54,0.20
2010,04,10,00,55,0.20
2010,04,10,00,56,0.20
2010,04,10,00,57,0.20
2010,04,10,00,58,0.20
2010,04,10,00,59,0.20
2010,04,10,01,00,0.20
2010,04,10,01,01,0.20
2010,04,10,01,02,0.20
2010,04,10,01,03,0.20
2010,04,10,01,04,0.20
2010,04,10,01,05,0.20
2010,04,10,01,06,0.20
2010,04,10,01,07,0.20
2010,04,10,01,08,0.20
2010,04,10,01,09,0.20
2010,04,10,01,10,0.20
2010,04,10,01,11,0.20
2010,04,10,01,12,0.20
2010,04,10,01,13,0.10
2010,04,10,01,14,0.10
2010,04,10,01,15,0.10
2010,04,10,01,16,0.10
2010,04,10,01,17,0.00
2010,04,10,01,18,0.00
2010,04,10,01,19,0.00
2010,04,10,01,20,0.00
2010,04,10,01,21,-0.10
2010,04,10,01,22,-0.10
2010,04,10,01,23,-0.10
2010,04,10,01,24,-0.10
2010,04,10,01,25,-0.10
2010,04,10,01,26,-0.10
2010,04,10,01,27,-0.10
2010,04,10,01,28,0.00
2010,04,10,01,29,0.00
2010,04,10,01,30,0.00
2010,04,10,01,31,0.00
2010,04,10,01,32,0.00
2010,04,10,01,33,0.00
2010,04,10,01,34,0.00
2010,04,10,01,35,0.10
2010,04,10,01,36,0.10
2010,04,10,01,37,0.10
2010,04,10,01,38,0.10
2010,04,10,01,39,0.00
2010,04,10,01,40,0.00
2010,04,10,01,41,0.00
2010,04,10,01,42,0.00
2010,04,10,01,43,0.00
2010,04,10,01,44,-0.10
2010,04,10,01,45,-0.10
2010,04,10,01,46,-0.10
2010,04,10,01,47,-0.10
2010,04,10,01,48,-0.10
2010,04,10,01,49,-0.10
2010,04,10,01,50,-0.20
2010,04,10,01,51,-0.20
2010,04,10,01,52,-0.20
2010,04,10,01,53,-0.20
2010,04,10,01,54,-0.20
2010,04,10,01,55,-0.20
2010,04,10,01,56,-0.20
2010,04,10,01,57,-0.20
2010,04,10,01,58,-0.20
2010,04,10,01,59,-0.20
2010,04,10,02,00,-0.20
2010,04,10,02,01,-0.20
2010,04,10,02,02,-0.20
2010,04,10,02,03,-0.20
2010,04,10,02,04,-0.20
2010,04,10,02,05,-0.20
2010,04,10,02,06,-0.20
2010,04,10,02,07,-0.20
2010,04,10,02,08,-0.20
2010,04,10,02,09,-0.20
2010,04,10,02,10,-0.20
2010,04,10,02,11,-0.20
2010,04,10,02,12,-0.20
2010,04,10,02,13,-0.20
2010,04,10,02,14,-0.20
2010,04,10,02,15,-0.20
2010,04,10,02,16,-0.20
2010,04,10,02,17,-0.20
2010,04,10,02,18,-0.20
2010,04,10,02,19,-0.20
2010,04,10,02,20,-0.20
2010,04,10,02,21,-0.20
2010,04,10,02,22,-0.20
2010,04,10,02,23,-0.20
2010,04,10,02,24,-0.20
2010,04,10,02,25,-0.20
2010,04,10,02,26,-0.20
2010,04,10,02,27,-0.30
2010,04,10,02,28,-0.30
2010,04,10,02,29,-0.30
2010,04,10,02,30,-0.30
2010,04,10,02,31,-0.30
2010,04,10,02,32,-0.30
2010,04,10,02,33,-0.30
2010,04,10,02,34,-0.30
2010,04,10,02,35,-0.30
2010,04,10,02,36,-0.30
2010,04,10,02,37,-0.40
2010,04,10,02,38,-0.40
2010,04,10,02,39,-0.40
2010,04,10,02,40,-0.40
2010,04,10,02,41,-0.40
2010,04,10,02,42,-0.40
2010,04,10,02,43,-0.40
2010,04,10,02,44,-0.40
2010,04,10,02,45,-0.40
2010,04,10,02,46,-0.40
2010,04,10,02,47,-0.40
2010,04,10,02,48,-0.40
2010,04,10,02,49,-0.40
2010,04,10,02,50,-0.40
2010,04,10,02,51,-0.40
2010,04,10,02,52,-0.40
2010,04,10,02,53,-0.40
2010,04,10,02,54,-0.40
2010,04,10,02,55,-0.40
2010,04,10,02,56,-0.40
2010,04,10,02,57,-0.40
2010,04,10,02,58,-0.40
2010,04,10,02,59,-0.40
2010,04,10,03,00,-0.40
2010,04,10,03,01,-0.40
2010,04,10,03,02,-0.40
2010,04,10,03,03,-0.40
2010,04,10,03,04,-0.40
2010,04,10,03,05,-0.40
2010,04,10,03,06,-0.40
2010,04,10,03,07,-0.50
2010,04,10,03,08,-0.50
2010,04,10,03,09,-0.50
2010,04,10,03,10,-0.50
2010,04,10,03,11,-0.50
2010,04,10,03,12,-0.50
2010,04,10,03,13,-0.50
2010,04,10,03,14,-0.50
2010,04,10,03,15,-0.50
2010,04,10,03,16,-0.50
2010,04,10,03,17,-0.60
2010,04,10,03,18,-0.60
2010,04,10,03,19,-0.60
2010,04,10,03,20,-0.60
2010,04,10,03,21,-0.60
2010,04,10,03,22,-0.60
2010,04,10,03,23,-0.50
2010,04,10,03,24,-0.50
2010,04,10,03,25,-0.50
2010,04,10,03,26,-0.50
2010,04,10,03,27,-0.50
2010,04,10,03,28,-0.50
2010,04,10,03,29,-0.50
2010,04,10,03,30,-0.50
2010,04,10,03,31,-0.40
2010,04,10,03,32,-0.40
2010,04,10,03,33,-0.40
2010,04,10,03,34,-0.40
2010,04,10,03,35,-0.40
2010,04,10,03,36,-0.40
2010,04,10,03,37,-0.30
2010,04,10,03,38,-0.30
2010,04,10,03,39,-0.30
2010,04,10,03,40,-0.30
2010,04,10,03,41,-0.30
2010,04,10,03,42,-0.30
2010,04,10,03,43,-0.20
2010,04,10,03,44,-0.20
2010,04,10,03,45,-0.10
2010,04,10,03,46,-0.10
2010,04,10,03,47,0.00
2010,04,10,03,48,0.00
2010,04,10,03,49,0.10
2010,04,10,03,50,0.10
2010,04,10,03,51,0.10
2010,04,10,03,52,0.10
2010,04,10,03,53,0.20
2010,04,10,03,54,0.20
2010,04,10,03,55,0.30
2010,04,10,03,56,0.30
2010,04,10,03,57,0.30
2010,04,10,03,58,0.40
2010,04,10,03,59,0.40
2010,04,10,04,00,0.50
2010,04,10,04,01,0.50
2010,04,10,04,02,0.60
2010,04,10,04,03,0.60
2010,04,10,04,06,0.40
2010,04,10,04,07,0.40
2010,04,10,04,08,0.40
2010,04,10,04,09,0.30
2010,04,10,04,10,0.30
2010,04,10,04,11,0.30
2010,04,10,04,12,0.30
2010,04,10,04,13,0.20
2010,04,10,04,14,0.20
2010,04,10,04,15,0.20
2010,04,10,04,16,0.10
2010,04,10,04,17,0.10
2010,04,10,04,18,0.10
2010,04,10,04,19,0.00
2010,04,10,04,20,0.00
2010,04,10,04,21,-0.10
2010,04,10,04,22,-0.10
2010,04,10,04,23,-0.10
2010,04,10,04,24,-0.10
2010,04,10,04,25,-0.20
2010,04,10,04,26,-0.20
2010,04,10,04,27,-0.20
2010,04,10,04,28,-0.30
2010,04,10,04,29,-0.30
2010,04,10,04,30,-0.30
2010,04,10,04,31,-0.30
2010,04,10,04,32,-0.30
2010,04,10,04,33,-0.30
2010,04,10,04,34,-0.30
2010,04,10,04,35,-0.30
2010,04,10,04,36,-0.30
2010,04,10,04,37,-0.30
2010,04,10,04,38,-0.30
2010,04,10,04,39,-0.30
2010,04,10,04,40,-0.30
2010,04,10,04,41,-0.20
2010,04,10,04,42,-0.20
2010,04,10,04,43,-0.20
2010,04,10,04,44,-0.20
2010,04,10,04,45,-0.20
2010,04,10,04,46,-0.20
2010,04,10,04,47,-0.20
2010,04,10,04,48,-0.20
2010,04,10,04,49,-0.10
2010,04,10,04,50,-0.10
2010,04,10,04,51,-0.10
2010,04,10,04,52,0.00
2010,04,10,04,53,0.00
2010,04,10,04,54,0.10
2010,04,10,04,55,0.10
2010,04,10,04,56,0.20
2010,04,10,04,57,0.20
2010,04,10,04,58,0.30
2010,04,10,04,59,0.30
2010,04,10,05,00,0.30
2010,04,10,05,01,0.30
2010,04,10,05,02,0.30
2010,04,10,05,03,0.30
2010,04,10,05,04,0.30
2010,04,10,05,05,0.30
2010,04,10,05,06,0.30
2010,04,10,05,07,0.30
2010,04,10,05,08,0.30
2010,04,10,05,09,0.30
2010,04,10,05,10,0.30
2010,04,10,05,11,0.30
2010,04,10,05,12,0.30
2010,04,10,05,13,0.30
2010,04,10,05,14,0.30
2010,04,10,05,15,0.30
2010,04,10,05,16,0.30
2010,04,10,05,17,0.30
2010,04,10,05,18,0.30
2010,04,10,05,19,0.30
2010,04,10,05,20,0.30
2010,04,10,05,21,0.30
2010,04,10,05,22,0.30
2010,04,10,05,23,0.30
2010,04,10,05,24,0.30
2010,04,10,05,25,0.30
2010,04,10,05,26,0.30
2010,04,10,05,27,0.30
2010,04,10,05,28,0.30
2010,04,10,05,29,0.30
2010,04,10,05,30,0.30
2010,04,10,05,31,0.30
2010,04,10,05,32,0.30
2010,04,10,05,33,0.30
2010,04,10,05,34,0.30
2010,04,10,05,35,0.30
2010,04,10,05,36,0.20
2010,04,10,05,37,0.20
2010,04,10,05,38,0.20
2010,04,10,05,39,0.10
2010,04,10,05,40,0.10
2010,04,10,05,41,0.00
2010,04,10,05,42,0.00
2010,04,10,05,43,-0.10
2010,04,10,05,44,-0.10
2010,04,10,05,45,-0.20
2010,04,10,05,46,-0.30
2010,04,10,05,47,-0.30
2010,04,10,05,48,-0.40
2010,04,10,05,49,-0.40
2010,04,10,05,50,-0.50
2010,04,10,05,51,-0.50
2010,04,10,05,52,-0.60
2010,04,10,05,53,-0.60
2010,04,10,05,54,-0.60
2010,04,10,05,55,-0.70
2010,04,10,05,56,-0.70
2010,04,10,05,57,-0.70
2010,04,10,05,58,-0.70
2010,04,10,05,59,-0.70
2010,04,10,06,00,-0.70
2010,04,10,06,01,-0.70
2010,04,10,06,02,-0.70
2010,04,10,06,03,-0.70
2010,04,10,06,04,-0.70
2010,04,10,06,05,-0.70
2010,04,10,06,06,-0.70
2010,04,10,06,07,-0.70
2010,04,10,06,08,-0.70
2010,04,10,06,09,-0.70
2010,04,10,06,10,-0.70
2010,04,10,06,11,-0.70
2010,04,10,06,12,-0.80
2010,04,10,06,13,-0.80
2010,04,10,06,14,-0.80
2010,04,10,06,15,-0.80
2010,04,10,06,16,-0.80
2010,04,10,06,17,-0.80
2010,04,10,06,18,-0.80
2010,04,10,06,19,-0.90
2010,04,10,06,20,-0.90
2010,04,10,06,21,-0.90
2010,04,10,06,22,-0.90
2010,04,10,06,23,-0.90
2010,04,10,06,24,-0.90
2010,04,10,06,25,-0.90
2010,04,10,06,26,-0.90
2010,04,10,06,27,-0.90
2010,04,10,06,28,-0.90
2010,04,10,06,29,-1.00
2010,04,10,06,30,-1.00
2010,04,10,06,31,-1.00
2010,04,10,06,32,-0.90
2010,04,10,06,33,-0.90
2010,04,10,06,34,-0.90
2010,04,10,06,35,-0.90
2010,04,10,06,36,-0.90
2010,04,10,06,37,-0.90
2010,04,10,06,38,-0.90
2010,04,10,06,39,-0.90
2010,04,10,06,40,-1.00
2010,04,10,06,41,-1.00
2010,04,10,06,42,-1.00
2010,04,10,06,43,-1.00
2010,04,10,06,44,-1.00
2010,04,10,06,45,-1.00
2010,04,10,06,46,-1.10
2010,04,10,06,47,-1.10
2010,04,10,06,48,-1.10
2010,04,10,06,49,-1.10
2010,04,10,06,50,-1.10
2010,04,10,06,51,-1.10
2010,04,10,06,52,-1.10
2010,04,10,06,53,-1.10
2010,04,10,06,54,-1.10
2010,04,10,06,55,-1.10
2010,04,10,06,56,-1.10
2010,04,10,06,57,-1.10
2010,04,10,06,58,-1.10
2010,04,10,06,59,-1.10
2010,04,10,07,00,-1.10
2010,04,10,07,01,-1.10
2010,04,10,07,02,-1.10
2010,04,10,07,03,-1.10
2010,04,10,07,04,-1.10
2010,04,10,07,05,-1.10
2010,04,10,07,06,-1.10
2010,04,10,07,07,-1.10
2010,04,10,07,08,-1.10
2010,04,10,07,09,-1.10
2010,04,10,07,10,-1.10
2010,04,10,07,11,-1.10
2010,04,10,07,12,-1.00
2010,04,10,07,13,-1.00
2010,04,10,07,14,-1.00
2010,04,10,07,15,-1.00
2010,04,10,07,16,-1.10
2010,04,10,07,17,-1.10
2010,04,10,07,18,-1.10
2010,04,10,07,19,-1.10
2010,04,10,07,20,-1.10
2010,04,10,07,21,-1.20
2010,04,10,07,22,-1.20
2010,04,10,07,23,-1.20
2010,04,10,07,24,-1.20
2010,04,10,07,25,-1.20
2010,04,10,07,26,-1.20
2010,04,10,07,27,-1.10
2010,04,10,07,28,-1.10
2010,04,10,07,29,-1.10
2010,04,10,07,30,-1.10
2010,04,10,07,31,-1.00
2010,04,10,07,32,-1.00
2010,04,10,07,33,-1.00
2010,04,10,07,34,-0.90
2010,04,10,07,35,-0.90
2010,04,10,07,36,-0.90
2010,04,10,07,37,-0.90
2010,04,10,07,38,-0.90
2010,04,10,07,39,-0.90
2010,04,10,07,40,-0.90
2010,04,10,07,41,-0.90
2010,04,10,07,42,-0.90
2010,04,10,07,43,-0.80
2010,04,10,07,44,-0.80
2010,04,10,07,45,-0.80
2010,04,10,07,46,-0.80
2010,04,10,07,47,-0.80
2010,04,10,07,48,-0.70
2010,04,10,07,49,-0.70
2010,04,10,07,50,-0.60
2010,04,10,07,51,-0.60
2010,04,10,07,52,-0.50
2010,04,10,07,53,-0.50
2010,04,10,07,54,-0.40
2010,04,10,07,55,-0.30
2010,04,10,07,56,-0.30
2010,04,10,07,57,-0.20
2010,04,10,07,58,-0.20
2010,04,10,07,59,-0.10
2010,04,10,08,00,-0.10
2010,04,10,08,01,0.00
2010,04,10,08,02,0.00
2010,04,10,08,03,0.10
2010,04,10,08,04,0.10
2010,04,10,08,05,0.10
2010,04,10,08,06,0.20
2010,04,10,08,07,0.20
2010,04,10,08,08,0.30
2010,04,10,08,09,0.30
2010,04,10,08,10,0.30
2010,04,10,08,11,0.40
2010,04,10,08,12,0.40
2010,04,10,08,13,0.50
2010,04,10,08,14,0.60
2010,04,10,08,15,0.70
2010,04,10,08,16,0.80
2010,04,10,08,17,0.80
2010,04,10,08,18,0.90
2010,04,10,08,19,1.00
2010,04,10,08,20,1.10
2010,04,10,08,21,1.20
2010,04,10,08,22,1.30
2010,04,10,08,23,1.40
2010,04,10,08,24,1.60
2010,04,10,08,25,1.70
2010,04,10,08,26,1.80
2010,04,10,08,27,2.00
2010,04,10,08,28,2.20
2010,04,10,08,29,2.40
2010,04,10,08,30,2.60
2010,04,10,08,31,2.80
2010,04,10,08,32,3.00
2010,04,10,08,33,3.20
2010,04,10,08,34,3.30
2010,04,10,08,35,3.40
2010,04,10,08,36,3.50
2010,04,10,08,37,3.70
2010,04,10,08,38,3.80
2010,04,10,08,39,3.80
2010,04,10,08,40,3.90
2010,04,10,08,41,4.00
2010,04,10,08,42,4.10
2010,04,10,08,43,4.10
2010,04,10,08,44,4.20
2010,04,10,08,45,4.20
2010,04,10,08,46,4.20
2010,04,10,08,47,4.30
2010,04,10,08,48,4.30
2010,04,10,08,49,4.30
2010,04,10,08,50,4.30
2010,04,10,08,51,4.30
2010,04,10,08,52,4.30
2010,04,10,08,53,4.40
2010,04,10,08,54,4.40
2010,04,10,08,55,4.40
2010,04,10,08,56,4.40
2010,04,10,08,57,4.50
2010,04,10,08,58,4.50
2010,04,10,08,59,4.50
2010,04,10,09,00,4.50
2010,04,10,09,01,4.50
2010,04,10,09,02,4.50
2010,04,10,09,03,4.60
2010,04,10,09,04,4.60
2010,04,10,09,05,4.60
2010,04,10,09,06,4.60
2010,04,10,09,07,4.60
2010,04,10,09,08,4.60
2010,04,10,09,09,4.60
2010,04,10,09,10,4.60
2010,04,10,09,11,4.60
2010,04,10,09,12,4.70
2010,04,10,09,13,4.70
2010,04,10,09,14,4.70
2010,04,10,09,15,4.70
2010,04,10,09,16,4.70
2010,04,10,09,17,4.70
2010,04,10,09,18,4.80
2010,04,10,09,19,4.80
2010,04,10,09,20,4.80
2010,04,10,09,21,4.80
2010,04,10,09,22,4.80
2010,04,10,09,23,4.80
2010,04,10,09,24,4.80
2010,04,10,09,25,4.80
2010,04,10,09,26,4.90
2010,04,10,09,27,4.90
2010,04,10,09,28,4.90
2010,04,10,09,29,5.00
2010,04,10,09,30,5.00
2010,04,10,09,31,5.10
2010,04,10,09,32,5.10
2010,04,10,09,33,5.10
2010,04,10,09,34,5.20
2010,04,10,09,35,5.20
2010,04,10,09,36,5.20
2010,04,10,09,37,5.20
2010,04,10,09,38,5.20
2010,04,10,09,39,5.30
2010,04,10,09,40,5.30
2010,04,10,09,41,5.30
2010,04,10,09,42,5.30
2010,04,10,09,43,5.40
2010,04,10,09,44,5.40
2010,04,10,09,45,5.40
2010,04,10,09,46,5.40
2010,04,10,09,47,5.40
2010,04,10,09,48,5.50
2010,04,10,09,49,5.50
2010,04,10,09,50,5.60
2010,04,10,09,51,5.70
2010,04,10,09,52,5.70
2010,04,10,09,53,5.80
2010,04,10,09,54,5.80
2010,04,10,09,55,5.80
2010,04,10,09,56,5.80
2010,04,10,09,57,5.80
2010,04,10,09,58,5.70
2010,04,10,09,59,5.70
2010,04,10,10,00,5.70
2010,04,10,10,01,5.80
2010,04,10,10,02,5.80
2010,04,10,10,03,5.90
2010,04,10,10,04,5.90
2010,04,10,10,05,6.00
2010,04,10,10,06,6.10
2010,04,10,10,07,6.10
2010,04,10,10,08,6.10
2010,04,10,10,09,6.10
2010,04,10,10,10,6.10
2010,04,10,10,11,6.10
2010,04,10,10,12,6.10
2010,04,10,10,13,6.10
2010,04,10,10,14,6.10
2010,04,10,10,15,6.10
2010,04,10,10,16,6.10
2010,04,10,10,17,6.10
2010,04,10,10,18,6.10
2010,04,10,10,19,6.10
2010,04,10,10,20,6.10
2010,04,10,10,21,6.10
2010,04,10,10,22,6.10
2010,04,10,10,23,6.10
2010,04,10,10,24,6.20
2010,04,10,10,25,6.20
2010,04,10,10,26,6.20
2010,04,10,10,27,6.30
2010,04,10,10,28,6.40
2010,04,10,10,29,6.40
2010,04,10,10,30,6.30
2010,04,10,10,31,6.30
2010,04,10,10,32,6.30
2010,04,10,10,33,6.30
2010,04,10,10,34,6.30
2010,04,10,10,35,6.40
2010,04,10,10,36,6.40
2010,04,10,10,37,6.40
2010,04,10,10,38,6.50
2010,04,10,10,39,6.50
2010,04,10,10,40,6.60
2010,04,10,10,41,6.70
2010,04,10,10,42,6.70
2010,04,10,10,43,6.70
2010,04,10,10,44,6.70
2010,04,10,10,45,6.70
2010,04,10,10,46,6.70
2010,04,10,10,47,6.70
2010,04,10,10,48,6.70
2010,04,10,10,49,6.80
2010,04,10,10,50,6.80
2010,04,10,10,51,6.80
2010,04,10,10,52,6.80
2010,04,10,10,53,6.80
2010,04,10,10,54,6.70
2010,04,10,10,55,6.70
2010,04,10,10,56,6.70
2010,04,10,10,57,6.70
2010,04,10,10,58,6.80
2010,04,10,10,59,6.80
2010,04,10,11,00,6.80
2010,04,10,11,01,6.80
2010,04,10,11,02,6.80
2010,04,10,11,03,6.80
2010,04,10,11,04,6.80
2010,04,10,11,05,6.80
2010,04,10,11,06,6.80
2010,04,10,11,07,6.90
2010,04,10,11,08,6.90
2010,04,10,11,09,7.00
2010,04,10,11,10,7.10
2010,04,10,11,11,7.10
2010,04,10,11,12,7.20
2010,04,10,11,13,7.30
2010,04,10,11,14,7.30
2010,04,10,11,15,7.30
2010,04,10,11,16,7.20
2010,04,10,11,17,7.20
2010,04,10,11,18,7.20
2010,04,10,11,19,7.20
2010,04,10,11,20,7.20
2010,04,10,11,21,7.20
2010,04,10,11,22,7.20
2010,04,10,11,23,7.20
2010,04,10,11,24,7.20
2010,04,10,11,25,7.20
2010,04,10,11,26,7.20
2010,04,10,11,27,7.20
2010,04,10,11,28,7.30
2010,04,10,11,29,7.40
2010,04,10,11,30,7.50
2010,04,10,11,31,7.50
2010,04,10,11,32,7.50
2010,04,10,11,33,7.40
2010,04,10,11,34,7.40
2010,04,10,11,35,7.50
2010,04,10,11,36,7.50
2010,04,10,11,37,7.50
2010,04,10,11,38,7.50
2010,04,10,11,39,7.60
2010,04,10,11,40,7.60
2010,04,10,11,41,7.70
2010,04,10,11,42,7.80
2010,04,10,11,43,7.80
2010,04,10,11,44,7.80
2010,04,10,11,45,7.80
2010,04,10,11,46,7.90
2010,04,10,11,47,7.90
2010,04,10,11,48,7.90
2010,04,10,11,49,7.80
2010,04,10,11,50,7.80
2010,04,10,11,51,7.80
2010,04,10,11,52,7.80
2010,04,10,11,53,7.90
2010,04,10,11,54,7.90
2010,04,10,11,55,7.90
2010,04,10,11,56,7.80
2010,04,10,11,57,7.80
2010,04,10,11,58,7.70
2010,04,10,11,59,7.70
2010,04,10,12,00,7.80
2010,04,10,12,01,7.80
2010,04,10,12,02,7.80
2010,04,10,12,03,7.80
2010,04,10,12,04,7.80
2010,04,10,12,05,7.90
2010,04,10,12,06,7.90
2010,04,10,12,07,7.90
2010,04,10,12,08,7.90
2010,04,10,12,09,8.00
2010,04,10,12,10,8.10
2010,04,10,12,11,8.00
2010,04,10,12,12,8.00
2010,04,10,12,13,8.00
2010,04,10,12,14,8.10
2010,04,10,12,15,8.20
2010,04,10,12,16,8.20
2010,04,10,12,17,8.20
2010,04,10,12,18,8.30
2010,04,10,12,19,8.30
2010,04,10,12,20,8.30
2010,04,10,12,21,8.30
2010,04,10,12,22,8.30
2010,04,10,12,23,8.30
2010,04,10,12,24,8.30
2010,04,10,12,25,8.30
2010,04,10,12,26,8.30
2010,04,10,12,27,8.30
2010,04,10,12,28,8.20
2010,04,10,12,29,8.30
2010,04,10,12,30,8.30
2010,04,10,12,31,8.30
2010,04,10,12,32,8.30
2010,04,10,12,33,8.30
2010,04,10,12,34,8.40
2010,04,10,12,35,8.40
2010,04,10,12,36,8.50
2010,04,10,12,37,8.70
2010,04,10,12,38,8.80
2010,04,10,12,39,8.90
2010,04,10,12,40,8.90
2010,04,10,12,41,9.00
2010,04,10,12,42,9.10
2010,04,10,12,43,9.20
2010,04,10,12,44,9.20
2010,04,10,12,45,9.10
2010,04,10,12,46,9.10
2010,04,10,12,47,9.00
2010,04,10,12,48,8.90
2010,04,10,12,49,8.80
2010,04,10,12,50,8.80
2010,04,10,12,51,8.80
2010,04,10,12,52,8.90
2010,04,10,12,53,9.00
2010,04,10,12,54,9.00
2010,04,10,12,55,9.10
2010,04,10,12,56,9.10
2010,04,10,12,57,9.20
2010,04,10,12,58,9.20
2010,04,10,12,59,9.20
2010,04,10,13,00,9.20
2010,04,10,13,01,9.40
2010,04,10,13,02,9.50
2010,04,10,13,03,9.50
2010,04,10,13,04,9.50
2010,04,10,13,05,9.60
2010,04,10,13,06,9.50
2010,04,10,13,07,9.60
2010,04,10,13,08,9.60
2010,04,10,13,09,9.60
2010,04,10,13,10,9.60
2010,04,10,13,11,9.60
2010,04,10,13,12,9.60
2010,04,10,13,13,9.60
2010,04,10,13,14,9.70
2010,04,10,13,15,9.80
2010,04,10,13,16,9.70
2010,04,10,13,17,9.60
2010,04,10,13,18,9.60
2010,04,10,13,19,9.50
2010,04,10,13,20,9.50
2010,04,10,13,21,9.50
2010,04,10,13,22,9.50
2010,04,10,13,23,9.50
2010,04,10,13,24,9.50
2010,04,10,13,25,9.60
2010,04,10,13,26,9.60
2010,04,10,13,27,9.70
2010,04,10,13,28,9.70
2010,04,10,13,29,9.70
2010,04,10,13,30,9.70
2010,04,10,13,31,9.60
2010,04,10,13,32,9.60
2010,04,10,13,33,9.60
2010,04,10,13,34,9.70
2010,04,10,13,35,9.70
2010,04,10,13,36,9.80
2010,04,10,13,37,9.80
2010,04,10,13,38,9.90
2010,04,10,13,39,9.90
2010,04,10,13,40,9.90
2010,04,10,13,41,10.00
2010,04,10,13,42,10.10
2010,04,10,13,43,10.10
2010,04,10,13,44,10.10
2010,04,10,13,45,10.00
2010,04,10,13,46,10.00
2010,04,10,13,47,10.10
2010,04,10,13,48,10.10
2010,04,10,13,49,10.00
2010,04,10,13,50,10.00
2010,04,10,13,51,10.00
2010,04,10,13,52,9.90
2010,04,10,13,53,9.90
2010,04,10,13,54,9.90
2010,04,10,13,55,10.00
2010,04,10,13,56,10.00
2010,04,10,13,57,10.20
2010,04,10,13,58,10.20
2010,04,10,13,59,10.20
2010,04,10,14,00,10.30
2010,04,10,14,01,10.30
2010,04,10,14,02,10.30
2010,04,10,14,03,10.30
2010,04,10,14,04,10.30
2010,04,10,14,05,10.30
2010,04,10,14,06,10.30
2010,04,10,14,07,10.30
2010,04,10,14,08,10.40
2010,04,10,14,09,10.50
2010,04,10,14,10,10.50
2010,04,10,14,11,10.50
2010,04,10,14,12,10.50
2010,04,10,14,13,10.50
2010,04,10,14,14,10.50
2010,04,10,14,15,10.60
2010,04,10,14,16,10.60
2010,04,10,14,17,10.60
2010,04,10,14,18,10.60
2010,04,10,14,19,10.50
2010,04,10,14,20,10.50
2010,04,10,14,21,10.60
2010,04,10,14,22,10.50
2010,04,10,14,23,10.50
2010,04,10,14,24,10.40
2010,04,10,14,25,10.40
2010,04,10,14,26,10.40
2010,04,10,14,27,10.40
2010,04,10,14,28,10.40
2010,04,10,14,29,10.40
2010,04,10,14,30,10.40
2010,04,10,14,31,10.50
2010,04,10,14,32,10.50
2010,04,10,14,33,10.60
2010,04,10,14,34,10.70
2010,04,10,14,35,10.80
2010,04,10,14,36,10.80
2010,04,10,14,37,10.80
2010,04,10,14,38,10.70
2010,04,10,14,39,10.70
2010,04,10,14,40,10.60
2010,04,10,14,41,10.50
2010,04,10,14,42,10.50
2010,04,10,14,43,10.60
2010,04,10,14,44,10.60
2010,04,10,14,45,10.60
2010,04,10,14,46,10.70
2010,04,10,14,47,10.80
2010,04,10,14,48,10.90
2010,04,10,14,49,10.80
2010,04,10,14,50,10.80
2010,04,10,14,51,10.80
2010,04,10,14,52,10.80
2010,04,10,14,53,10.90
2010,04,10,14,54,11.00
2010,04,10,14,55,11.10
2010,04,10,14,56,11.20
2010,04,10,14,57,11.30
2010,04,10,14,58,11.30
2010,04,10,14,59,11.30
2010,04,10,15,00,11.30
2010,04,10,15,01,11.30
2010,04,10,15,02,11.30
2010,04,10,15,03,11.20
2010,04,10,15,04,11.10
2010,04,10,15,05,11.10
2010,04,10,15,06,11.10
2010,04,10,15,07,11.10
2010,04,10,15,08,11.20
2010,04,10,15,09,11.20
2010,04,10,15,10,11.30
2010,04,10,15,11,11.30
2010,04,10,15,12,11.40
2010,04,10,15,13,11.40
2010,04,10,15,14,11.40
2010,04,10,15,15,11.30
2010,04,10,15,16,11.30
2010,04,10,15,17,11.20
2010,04,10,15,18,11.20
2010,04,10,15,19,11.20
2010,04,10,15,20,11.20
2010,04,10,15,21,11.20
2010,04,10,15,22,11.20
2010,04,10,15,23,11.20
2010,04,10,15,24,11.10
2010,04,10,15,25,11.10
2010,04,10,15,26,11.10
2010,04,10,15,27,11.10
2010,04,10,15,28,11.20
2010,04,10,15,29,11.30
2010,04,10,15,30,11.40
2010,04,10,15,31,11.40
2010,04,10,15,32,11.50
2010,04,10,15,33,11.50
2010,04,10,15,34,11.60
2010,04,10,15,35,11.70
2010,04,10,15,36,11.70
2010,04,10,15,37,11.80
2010,04,10,15,38,11.90
2010,04,10,15,39,11.90
2010,04,10,15,40,11.90
2010,04,10,15,41,11.80
2010,04,10,15,42,11.70
2010,04,10,15,43,11.60
2010,04,10,15,44,11.60
2010,04,10,15,45,11.50
2010,04,10,15,46,11.50
2010,04,10,15,47,11.50
2010,04,10,15,48,11.40
2010,04,10,15,49,11.40
2010,04,10,15,50,11.40
2010,04,10,15,51,11.40
2010,04,10,15,52,11.30
2010,04,10,15,53,11.30
2010,04,10,15,54,11.30
2010,04,10,15,55,11.30
2010,04,10,15,56,11.30
2010,04,10,15,57,11.30
2010,04,10,15,58,11.30
2010,04,10,15,59,11.20
2010,04,10,16,00,11.20
2010,04,10,16,01,11.30
2010,04,10,16,02,11.40
2010,04,10,16,03,11.50
2010,04,10,16,04,11.60
2010,04,10,16,05,11.70
2010,04,10,16,06,11.80
2010,04,10,16,07,11.80
2010,04,10,16,08,11.70
2010,04,10,16,09,11.70
2010,04,10,16,10,11.60
2010,04,10,16,11,11.70
2010,04,10,16,12,11.70
2010,04,10,16,13,11.80
2010,04,10,16,14,11.80
2010,04,10,16,15,11.80
2010,04,10,16,16,11.80
2010,04,10,16,17,11.80
2010,04,10,16,18,11.80
2010,04,10,16,19,11.70
2010,04,10,16,20,11.60
2010,04,10,16,21,11.60
2010,04,10,16,22,11.60
2010,04,10,16,23,11.70
2010,04,10,16,24,11.70
2010,04,10,16,25,11.70
2010,04,10,16,26,11.70
2010,04,10,16,27,11.70
2010,04,10,16,28,11.70
2010,04,10,16,29,11.70
2010,04,10,16,30,11.60
2010,04,10,16,31,11.60
2010,04,10,16,32,11.60
2010,04,10,16,33,11.60
2010,04,10,16,34,11.50
2010,04,10,16,35,11.40
2010,04,10,16,36,11.40
2010,04,10,16,37,11.30
2010,04,10,16,38,11.30
2010,04,10,16,39,11.30
2010,04,10,16,40,11.40
2010,04,10,16,41,11.40
2010,04,10,16,42,11.40
2010,04,10,16,43,11.50
2010,04,10,16,44,11.50
2010,04,10,16,45,11.60
2010,04,10,16,46,11.60
2010,04,10,16,47,11.60
2010,04,10,16,48,11.50
2010,04,10,16,49,11.50
2010,04,10,16,50,11.50
2010,04,10,16,51,11.50
2010,04,10,16,52,11.60
2010,04,10,16,53,11.60
2010,04,10,16,54,11.60
2010,04,10,16,55,11.60
2010,04,10,16,56,11.70
2010,04,10,16,57,11.80
2010,04,10,16,58,11.80
2010,04,10,16,59,11.80
2010,04,10,17,00,11.80
2010,04,10,17,01,11.80
2010,04,10,17,02,11.70
2010,04,10,17,03,11.70
2010,04,10,17,04,11.70
2010,04,10,17,05,11.70
2010,04,10,17,06,11.60
2010,04,10,17,07,11.60
2010,04,10,17,08,11.70
2010,04,10,17,09,11.70
2010,04,10,17,10,11.70
2010,04,10,17,11,11.70
2010,04,10,17,12,11.60
2010,04,10,17,13,11.60
2010,04,10,17,14,11.60
2010,04,10,17,15,11.60
2010,04,10,17,16,11.60
2010,04,10,17,17,11.60
2010,04,10,17,18,11.60
2010,04,10,17,19,11.60
2010,04,10,17,20,11.60
2010,04,10,17,21,11.50
2010,04,10,17,22,11.50
2010,04,10,17,23,11.40
2010,04,10,17,24,11.40
2010,04,10,17,25,11.40
2010,04,10,17,26,11.40
2010,04,10,17,27,11.40
2010,04,10,17,28,11.40
2010,04,10,17,29,11.40
2010,04,10,17,30,11.40
2010,04,10,17,31,11.40
2010,04,10,17,32,11.30
2010,04,10,17,33,11.30
2010,04,10,17,34,11.30
2010,04,10,17,35,11.30
2010,04,10,17,36,11.30
2010,04,10,17,37,11.30
2010,04,10,17,38,11.30
2010,04,10,17,39,11.30
2010,04,10,17,40,11.20
2010,04,10,17,41,11.20
2010,04,10,17,42,11.20
2010,04,10,17,43,11.20
2010,04,10,17,44,11.20